Palmdale - Butte, CA

11:46 PM PDT on August 21, 2017 (GMT -0700)
Palmdale - Butte

Weather History for KGXA - August, 2013

Change the Weather History Date:

Wednesday, August 14, 2013

  Actual Average (KPMD) Record (KPMD)
Temperature  
Mean Temperature 82 °F -  
Max Temperature 98 °F 94 °F 109 °F (1962)
Min Temperature 66 °F 64 °F 43 °F (1979)
Cooling Degree Days 17    
Growing Degree Days 32 (Base 50)    
Moisture  
Dew Point 27 °F    
Average Humidity 14    
Maximum Humidity 24    
Minimum Humidity 7    
Precipitation  
Precipitation 0.00 in - - ()
Sea Level Pressure  
Sea Level Pressure 29.82 in    
Wind  
Wind Speed 5 mph (WSW)    
Max Wind Speed 12 mph    
Max Gust Speed 16 mph    
Visibility 10 miles    
Events      
Averages and records for this station are not official NWS values.
T = Trace of Precipitation, MM = Missing Value Source: NWS Daily Summary

Daily Weather History Graph

Daily Weather History Graph

Search for Another Location

Airport or City:

Trip Planner

Search our weather history database for the weather conditions in past years. The results will help you decide how hot, cold, wet, or windy it might be!

Date:

Astronomy

Aug. 14, 2013 Rise Set
Actual Time 6:10 AM PDT 7:39 PM PDT
Civil Twilight 5:44 AM PDT 8:05 PM PDT
Nautical Twilight 5:12 AM PDT 8:37 PM PDT
Astronomical Twilight 4:38 AM PDT 9:11 PM PDT
Moon 1:53 PM PDT (8/14) No Moon Set
Length of Visible Light 14h 21m
Length of Day
13h 28m
First Quarter, 54% of the Moon is Illuminated
Aug 14
First Quarter
Aug 20
Full
Aug 28
Last Quarter
Sep 5
New
Sep 12
First Quarter

Hourly Weather History & Observations

Time (PDT) Temp. Dew Point Humidity Pressure Visibility Wind Dir Wind Speed Gust Speed Precip Events Conditions
12:55 AM 67.3 °F 29.5 °F 24% 29.85 in 10.0 mi SSE 3.5 mph - N/A   Clear
1:55 AM 68.5 °F 24.1 °F 19% 29.84 in 10.0 mi SSW 5.8 mph - N/A   Clear
2:55 AM 66.4 °F 23.2 °F 19% 29.83 in 10.0 mi South 4.6 mph - N/A   Clear
4:55 AM 67.3 °F 23.2 °F 19% 29.83 in 10.0 mi SSW 6.9 mph - N/A   Clear
6:55 AM 68.7 °F 25.0 °F 19% 29.86 in 10.0 mi South 5.8 mph - N/A   Clear
7:55 AM 77.5 °F 27.0 °F 16% 29.86 in 10.0 mi SSW 2.3 mph - N/A   Clear
8:55 AM 81.5 °F 31.8 °F 17% 29.87 in 10.0 mi WNW 3.5 mph - N/A   Clear
9:55 AM 84.6 °F 32.0 °F 15% 29.88 in 10.0 mi Variable 2.3 mph - N/A   Clear
10:55 AM 90.0 °F 28.0 °F 11% 29.87 in 10.0 mi NW 3.5 mph - N/A   Clear
11:55 AM 92.8 °F 23.2 °F 8% 29.86 in 10.0 mi Variable 4.6 mph - N/A   Clear
12:55 PM 94.8 °F 22.8 °F 7% 29.84 in 10.0 mi Variable 4.6 mph - N/A   Partly Cloudy
1:55 PM 97.9 °F 23.0 °F 7% 29.81 in 10.0 mi West 5.8 mph 15.0 mph N/A   Partly Cloudy
2:55 PM 96.8 °F 23.2 °F 7% 29.81 in 10.0 mi Variable 4.6 mph - N/A   Clear
3:55 PM 97.9 °F 23.4 °F 7% 29.78 in 10.0 mi NW 9.2 mph 16.1 mph N/A   Clear
4:55 PM 98.8 °F 23.2 °F 7% 29.77 in 10.0 mi West 8.1 mph - N/A   Clear
5:55 PM 97.2 °F 24.6 °F 7% 29.76 in 10.0 mi WNW 10.4 mph - N/A   Clear
6:55 PM 93.4 °F 28.9 °F 10% 29.77 in 10.0 mi WNW 11.5 mph - N/A   Clear
7:55 PM 88.5 °F 31.1 °F 13% 29.77 in 10.0 mi WNW 10.4 mph - N/A   Clear
8:55 PM 83.7 °F 30.0 °F 14% 29.80 in 10.0 mi WNW 4.6 mph - N/A   Clear
9:55 PM 78.8 °F 32.7 °F 19% 29.82 in 10.0 mi WSW 4.6 mph - N/A   Clear
10:55 PM 76.1 °F 32.9 °F 21% 29.83 in 10.0 mi South 5.8 mph - N/A   Clear
11:55 PM 73.0 °F 30.2 °F 21% 29.83 in 10.0 mi SSE 3.5 mph - N/A   Clear